Year,Month,Day,Hour,Minute,Value (Times are PST for temperature in C)
2008,07,11,00,00,12.50
2008,07,11,00,01,12.50
2008,07,11,00,02,12.40
2008,07,11,00,03,12.40
2008,07,11,00,04,12.40
2008,07,11,00,05,12.40
2008,07,11,00,06,12.30
2008,07,11,00,07,12.30
2008,07,11,00,08,12.30
2008,07,11,00,09,12.30
2008,07,11,00,10,12.30
2008,07,11,00,11,12.30
2008,07,11,00,12,12.20
2008,07,11,00,13,12.20
2008,07,11,00,14,12.20
2008,07,11,00,15,12.20
2008,07,11,00,16,12.20
2008,07,11,00,17,12.20
2008,07,11,00,18,12.10
2008,07,11,00,19,12.10
2008,07,11,00,20,12.10
2008,07,11,00,21,12.10
2008,07,11,00,22,12.00
2008,07,11,00,23,12.00
2008,07,11,00,24,11.90
2008,07,11,00,25,11.90
2008,07,11,00,26,11.90
2008,07,11,00,27,11.80
2008,07,11,00,28,11.80
2008,07,11,00,29,11.80
2008,07,11,00,30,11.80
2008,07,11,00,31,11.80
2008,07,11,00,32,11.70
2008,07,11,00,33,11.70
2008,07,11,00,34,11.70
2008,07,11,00,35,11.70
2008,07,11,00,36,11.60
2008,07,11,00,37,11.60
2008,07,11,00,38,11.60
2008,07,11,00,39,11.60
2008,07,11,00,40,11.60
2008,07,11,00,41,11.60
2008,07,11,00,42,11.50
2008,07,11,00,43,11.50
2008,07,11,00,44,11.50
2008,07,11,00,45,11.50
2008,07,11,00,46,11.50
2008,07,11,00,47,11.40
2008,07,11,00,48,11.40
2008,07,11,00,49,11.40
2008,07,11,00,50,11.40
2008,07,11,00,51,11.40
2008,07,11,00,52,11.40
2008,07,11,00,53,11.40
2008,07,11,00,54,11.40
2008,07,11,00,55,11.40
2008,07,11,00,56,11.40
2008,07,11,00,57,11.40
2008,07,11,00,58,11.40
2008,07,11,00,59,11.40
2008,07,11,01,00,11.40
2008,07,11,01,01,11.30
2008,07,11,01,02,11.30
2008,07,11,01,03,11.30
2008,07,11,01,04,11.30
2008,07,11,01,05,11.30
2008,07,11,01,06,11.30
2008,07,11,01,07,11.30
2008,07,11,01,08,11.30
2008,07,11,01,09,11.30
2008,07,11,01,10,11.30
2008,07,11,01,11,11.30
2008,07,11,01,12,11.30
2008,07,11,01,13,11.20
2008,07,11,01,14,11.20
2008,07,11,01,15,11.20
2008,07,11,01,16,11.20
2008,07,11,01,17,11.20
2008,07,11,01,18,11.20
2008,07,11,01,19,11.20
2008,07,11,01,20,11.20
2008,07,11,01,21,11.10
2008,07,11,01,22,11.10
2008,07,11,01,23,11.10
2008,07,11,01,24,11.10
2008,07,11,01,25,11.10
2008,07,11,01,26,11.10
2008,07,11,01,27,11.10
2008,07,11,01,28,11.10
2008,07,11,01,29,11.00
2008,07,11,01,30,11.00
2008,07,11,01,31,11.00
2008,07,11,01,32,11.00
2008,07,11,01,33,10.90
2008,07,11,01,34,10.90
2008,07,11,01,35,10.90
2008,07,11,01,36,10.90
2008,07,11,01,37,10.90
2008,07,11,01,38,10.90
2008,07,11,01,39,10.80
2008,07,11,01,40,10.80
2008,07,11,01,41,10.80
2008,07,11,01,42,10.80
2008,07,11,01,43,10.80
2008,07,11,01,44,10.70
2008,07,11,01,45,10.70
2008,07,11,01,46,10.70
2008,07,11,01,47,10.70
2008,07,11,01,48,10.60
2008,07,11,01,49,10.60
2008,07,11,01,50,10.60
2008,07,11,01,51,10.60
2008,07,11,01,52,10.60
2008,07,11,01,53,10.60
2008,07,11,01,54,10.60
2008,07,11,01,55,10.60
2008,07,11,01,56,10.60
2008,07,11,01,57,10.60
2008,07,11,01,58,10.50
2008,07,11,01,59,10.50
2008,07,11,02,00,10.50
2008,07,11,02,01,10.50
2008,07,11,02,02,10.50
2008,07,11,02,03,10.50
2008,07,11,02,04,10.50
2008,07,11,02,05,10.50
2008,07,11,02,06,10.40
2008,07,11,02,07,10.40
2008,07,11,02,08,10.40
2008,07,11,02,09,10.40
2008,07,11,02,10,10.40
2008,07,11,02,11,10.40
2008,07,11,02,12,10.40
2008,07,11,02,13,10.30
2008,07,11,02,14,10.30
2008,07,11,02,15,10.30
2008,07,11,02,16,10.30
2008,07,11,02,17,10.30
2008,07,11,02,18,10.30
2008,07,11,02,19,10.30
2008,07,11,02,20,10.20
2008,07,11,02,21,10.20
2008,07,11,02,22,10.20
2008,07,11,02,23,10.20
2008,07,11,02,24,10.20
2008,07,11,02,25,10.20
2008,07,11,02,26,10.20
2008,07,11,02,27,10.20
2008,07,11,02,28,10.20
2008,07,11,02,29,10.20
2008,07,11,02,30,10.20
2008,07,11,02,31,10.20
2008,07,11,02,32,10.20
2008,07,11,02,33,10.20
2008,07,11,02,34,10.20
2008,07,11,02,35,10.20
2008,07,11,02,36,10.20
2008,07,11,02,37,10.20
2008,07,11,02,38,10.20
2008,07,11,02,39,10.20
2008,07,11,02,40,10.20
2008,07,11,02,41,10.20
2008,07,11,02,42,10.20
2008,07,11,02,43,10.10
2008,07,11,02,44,10.10
2008,07,11,02,45,10.10
2008,07,11,02,46,10.10
2008,07,11,02,47,10.10
2008,07,11,02,48,10.10
2008,07,11,02,49,10.10
2008,07,11,02,50,10.10
2008,07,11,02,51,10.10
2008,07,11,02,52,10.00
2008,07,11,02,53,10.00
2008,07,11,02,54,10.00
2008,07,11,02,55,10.00
2008,07,11,02,56,9.90
2008,07,11,02,57,9.90
2008,07,11,02,58,9.90
2008,07,11,02,59,9.90
2008,07,11,03,00,9.90
2008,07,11,03,01,9.90
2008,07,11,03,02,9.90
2008,07,11,03,03,9.90
2008,07,11,03,04,9.90
2008,07,11,03,05,9.90
2008,07,11,03,06,9.90
2008,07,11,03,07,9.90
2008,07,11,03,08,9.90
2008,07,11,03,09,9.90
2008,07,11,03,10,9.90
2008,07,11,03,11,9.90
2008,07,11,03,12,9.90
2008,07,11,03,13,9.90
2008,07,11,03,14,9.90
2008,07,11,03,15,9.90
2008,07,11,03,16,9.90
2008,07,11,03,17,9.90
2008,07,11,03,18,9.90
2008,07,11,03,19,9.90
2008,07,11,03,20,9.90
2008,07,11,03,21,9.90
2008,07,11,03,22,9.90
2008,07,11,03,23,9.90
2008,07,11,03,24,9.90
2008,07,11,03,25,9.90
2008,07,11,03,26,9.90
2008,07,11,03,27,9.90
2008,07,11,03,28,9.90
2008,07,11,03,29,9.90
2008,07,11,03,30,9.90
2008,07,11,03,31,9.90
2008,07,11,03,32,9.90
2008,07,11,03,33,9.90
2008,07,11,03,34,9.90
2008,07,11,03,35,9.90
2008,07,11,03,36,9.90
2008,07,11,03,37,9.90
2008,07,11,03,38,9.90
2008,07,11,03,39,9.90
2008,07,11,03,40,9.90
2008,07,11,03,41,9.90
2008,07,11,03,42,9.90
2008,07,11,03,43,9.90
2008,07,11,03,44,9.90
2008,07,11,03,45,9.90
2008,07,11,03,46,9.90
2008,07,11,03,47,10.00
2008,07,11,03,48,10.10
2008,07,11,03,49,10.10
2008,07,11,03,50,10.10
2008,07,11,03,51,10.20
2008,07,11,03,52,10.20
2008,07,11,03,53,10.30
2008,07,11,03,54,10.30
2008,07,11,03,55,10.30
2008,07,11,03,56,10.30
2008,07,11,03,57,10.30
2008,07,11,03,58,10.40
2008,07,11,03,59,10.50
2008,07,11,04,00,10.60
2008,07,11,04,01,10.60
2008,07,11,04,02,10.70
2008,07,11,04,03,10.70
2008,07,11,04,04,10.70
2008,07,11,04,05,10.80
2008,07,11,04,06,10.80
2008,07,11,04,07,10.90
2008,07,11,04,08,10.90
2008,07,11,04,09,11.00
2008,07,11,04,10,11.00
2008,07,11,04,11,11.00
2008,07,11,04,12,11.30
2008,07,11,04,13,11.40
2008,07,11,04,14,11.50
2008,07,11,04,15,11.60
2008,07,11,04,16,11.70
2008,07,11,04,17,11.80
2008,07,11,04,18,11.90
2008,07,11,04,19,11.90
2008,07,11,04,20,12.00
2008,07,11,04,21,12.10
2008,07,11,04,22,12.10
2008,07,11,04,23,12.20
2008,07,11,04,24,12.30
2008,07,11,04,25,12.30
2008,07,11,04,26,12.40
2008,07,11,04,27,12.40
2008,07,11,04,28,12.50
2008,07,11,04,29,12.60
2008,07,11,04,30,12.60
2008,07,11,04,31,12.60
2008,07,11,04,32,12.70
2008,07,11,04,33,12.70
2008,07,11,04,34,12.70
2008,07,11,04,35,12.70
2008,07,11,04,36,12.70
2008,07,11,04,37,12.70
2008,07,11,04,38,12.70
2008,07,11,04,39,12.70
2008,07,11,04,40,12.60
2008,07,11,04,41,12.60
2008,07,11,04,42,12.60
2008,07,11,04,43,12.50
2008,07,11,04,44,12.50
2008,07,11,04,45,12.40
2008,07,11,04,46,12.40
2008,07,11,04,47,12.40
2008,07,11,04,48,12.40
2008,07,11,04,49,12.30
2008,07,11,04,50,12.30
2008,07,11,04,51,12.30
2008,07,11,04,52,12.20
2008,07,11,04,53,12.20
2008,07,11,04,54,12.20
2008,07,11,04,55,12.20
2008,07,11,04,56,12.20
2008,07,11,04,57,12.20
2008,07,11,04,58,12.20
2008,07,11,04,59,12.20
2008,07,11,05,00,12.20
2008,07,11,05,01,12.20
2008,07,11,05,02,12.20
2008,07,11,05,03,12.30
2008,07,11,05,04,12.30
2008,07,11,05,05,12.30
2008,07,11,05,06,12.40
2008,07,11,05,07,12.40
2008,07,11,05,08,12.40
2008,07,11,05,09,12.50
2008,07,11,05,10,12.50
2008,07,11,05,11,12.50
2008,07,11,05,12,12.60
2008,07,11,05,13,12.60
2008,07,11,05,14,12.60
2008,07,11,05,15,12.60
2008,07,11,05,16,12.60
2008,07,11,05,17,12.50
2008,07,11,05,18,12.50
2008,07,11,05,19,12.40
2008,07,11,05,20,12.40
2008,07,11,05,21,12.30
2008,07,11,05,22,12.30
2008,07,11,05,23,12.20
2008,07,11,05,24,12.20
2008,07,11,05,25,12.10
2008,07,11,05,26,12.10
2008,07,11,05,27,12.00
2008,07,11,05,28,12.00
2008,07,11,05,29,11.90
2008,07,11,05,30,11.90
2008,07,11,05,31,11.80
2008,07,11,05,32,11.80
2008,07,11,05,33,11.80
2008,07,11,05,34,11.70
2008,07,11,05,35,11.70
2008,07,11,05,36,11.70
2008,07,11,05,37,11.70
2008,07,11,05,38,11.70
2008,07,11,05,39,11.70
2008,07,11,05,40,11.70
2008,07,11,05,41,11.70
2008,07,11,05,42,11.70
2008,07,11,05,43,11.70
2008,07,11,05,44,11.60
2008,07,11,05,45,11.60
2008,07,11,05,46,11.60
2008,07,11,05,47,11.60
2008,07,11,05,48,11.60
2008,07,11,05,49,11.60
2008,07,11,05,50,11.60
2008,07,11,05,51,11.70
2008,07,11,05,52,11.70
2008,07,11,05,53,11.70
2008,07,11,05,54,11.70
2008,07,11,05,55,11.70
2008,07,11,05,56,11.70
2008,07,11,05,57,11.70
2008,07,11,05,58,11.70
2008,07,11,05,59,11.70
2008,07,11,06,00,11.70
2008,07,11,06,01,11.70
2008,07,11,06,02,11.70
2008,07,11,06,03,11.70
2008,07,11,06,04,11.70
2008,07,11,06,05,11.80
2008,07,11,06,06,11.80
2008,07,11,06,07,11.80
2008,07,11,06,08,11.90
2008,07,11,06,09,11.90
2008,07,11,06,10,11.90
2008,07,11,06,11,12.00
2008,07,11,06,12,12.10
2008,07,11,06,13,12.10
2008,07,11,06,14,12.20
2008,07,11,06,15,12.20
2008,07,11,06,16,12.20
2008,07,11,06,17,12.20
2008,07,11,06,18,12.20
2008,07,11,06,19,12.20
2008,07,11,06,20,12.10
2008,07,11,06,21,12.10
2008,07,11,06,22,12.10
2008,07,11,06,23,12.00
2008,07,11,06,24,12.00
2008,07,11,06,25,11.90
2008,07,11,06,26,11.90
2008,07,11,06,27,11.90
2008,07,11,06,28,11.80
2008,07,11,06,29,11.80
2008,07,11,06,30,11.80
2008,07,11,06,31,11.70
2008,07,11,06,32,11.70
2008,07,11,06,33,11.70
2008,07,11,06,34,11.60
2008,07,11,06,35,11.60
2008,07,11,06,36,11.60
2008,07,11,06,37,11.60
2008,07,11,06,38,11.60
2008,07,11,06,39,11.50
2008,07,11,06,40,11.50
2008,07,11,06,41,11.50
2008,07,11,06,42,11.40
2008,07,11,06,43,11.40
2008,07,11,06,44,11.40
2008,07,11,06,45,11.40
2008,07,11,06,46,11.40
2008,07,11,06,47,11.40
2008,07,11,06,48,11.40
2008,07,11,06,49,11.40
2008,07,11,06,50,11.40
2008,07,11,06,51,11.40
2008,07,11,06,52,11.40
2008,07,11,06,53,11.30
2008,07,11,06,54,11.30
2008,07,11,06,55,11.40
2008,07,11,06,56,11.40
2008,07,11,06,57,11.40
2008,07,11,06,58,11.40
2008,07,11,06,59,11.40
2008,07,11,07,00,11.40
2008,07,11,07,01,11.40
2008,07,11,07,02,11.40
2008,07,11,07,03,11.40
2008,07,11,07,04,11.40
2008,07,11,07,05,11.40
2008,07,11,07,06,11.40
2008,07,11,07,07,11.40
2008,07,11,07,08,11.50
2008,07,11,07,09,11.50
2008,07,11,07,10,11.60
2008,07,11,07,11,11.60
2008,07,11,07,12,11.60
2008,07,11,07,13,11.70
2008,07,11,07,14,11.70
2008,07,11,07,15,11.70
2008,07,11,07,16,11.70
2008,07,11,07,17,11.70
2008,07,11,07,18,11.80
2008,07,11,07,19,11.80
2008,07,11,07,20,11.80
2008,07,11,07,21,11.80
2008,07,11,07,22,11.80
2008,07,11,07,23,11.80
2008,07,11,07,24,11.90
2008,07,11,07,25,11.90
2008,07,11,07,26,12.00
2008,07,11,07,27,12.00
2008,07,11,07,28,12.00
2008,07,11,07,29,12.10
2008,07,11,07,30,12.10
2008,07,11,07,31,12.10
2008,07,11,07,32,12.10
2008,07,11,07,33,12.20
2008,07,11,07,34,12.20
2008,07,11,07,35,12.20
2008,07,11,07,36,12.20
2008,07,11,07,37,12.20
2008,07,11,07,38,12.20
2008,07,11,07,39,12.20
2008,07,11,07,40,12.20
2008,07,11,07,41,12.30
2008,07,11,07,42,12.30
2008,07,11,07,43,12.30
2008,07,11,07,44,12.30
2008,07,11,07,45,12.30
2008,07,11,07,46,12.30
2008,07,11,07,47,12.30
2008,07,11,07,48,12.30
2008,07,11,07,49,12.30
2008,07,11,07,50,12.40
2008,07,11,07,51,12.40
2008,07,11,07,52,12.40
2008,07,11,07,53,12.40
2008,07,11,07,54,12.40
2008,07,11,07,55,12.40
2008,07,11,07,56,12.50
2008,07,11,07,57,12.50
2008,07,11,07,58,12.60
2008,07,11,07,59,12.60
2008,07,11,08,00,12.60
2008,07,11,08,01,12.70
2008,07,11,08,02,12.70
2008,07,11,08,03,12.70
2008,07,11,08,04,12.80
2008,07,11,08,05,12.80
2008,07,11,08,06,12.80
2008,07,11,08,07,12.90
2008,07,11,08,08,13.00
2008,07,11,08,09,13.00
2008,07,11,08,10,13.10
2008,07,11,08,11,13.20
2008,07,11,08,12,13.20
2008,07,11,08,13,13.30
2008,07,11,08,14,13.30
2008,07,11,08,15,13.30
2008,07,11,08,16,13.40
2008,07,11,08,17,13.40
2008,07,11,08,18,13.50
2008,07,11,08,19,13.50
2008,07,11,08,20,13.60
2008,07,11,08,21,13.60
2008,07,11,08,22,13.60
2008,07,11,08,23,13.70
2008,07,11,08,24,13.70
2008,07,11,08,25,13.80
2008,07,11,08,26,13.80
2008,07,11,08,27,13.90
2008,07,11,08,28,14.00
2008,07,11,08,29,14.10
2008,07,11,08,30,14.20
2008,07,11,08,31,14.40
2008,07,11,08,32,14.50
2008,07,11,08,33,14.60
2008,07,11,08,34,14.80
2008,07,11,08,35,15.00
2008,07,11,08,36,15.00
2008,07,11,08,37,15.20
2008,07,11,08,38,15.40
2008,07,11,08,39,15.50
2008,07,11,08,40,15.70
2008,07,11,08,41,15.70
2008,07,11,08,42,15.80
2008,07,11,08,43,15.90
2008,07,11,08,44,15.90
2008,07,11,08,45,16.00
2008,07,11,08,46,16.10
2008,07,11,08,47,16.20
2008,07,11,08,48,16.20
2008,07,11,08,49,16.30
2008,07,11,08,50,16.30
2008,07,11,08,51,16.40
2008,07,11,08,52,16.50
2008,07,11,08,53,16.50
2008,07,11,08,54,16.50
2008,07,11,08,55,16.60
2008,07,11,08,56,16.60
2008,07,11,08,57,16.60
2008,07,11,08,58,16.70
2008,07,11,08,59,16.80
2008,07,11,09,00,16.80
2008,07,11,09,01,16.90
2008,07,11,09,02,17.00
2008,07,11,09,03,17.10
2008,07,11,09,04,17.10
2008,07,11,09,05,17.20
2008,07,11,09,06,17.30
2008,07,11,09,07,17.30
2008,07,11,09,08,17.50
2008,07,11,09,09,17.60
2008,07,11,09,10,17.60
2008,07,11,09,11,17.70
2008,07,11,09,12,17.70
2008,07,11,09,13,17.80
2008,07,11,09,14,17.80
2008,07,11,09,15,17.80
2008,07,11,09,16,17.80
2008,07,11,09,17,17.90
2008,07,11,09,18,17.90
2008,07,11,09,19,17.80
2008,07,11,09,20,17.80
2008,07,11,09,21,17.80
2008,07,11,09,22,17.80
2008,07,11,09,23,17.90
2008,07,11,09,24,17.90
2008,07,11,09,25,18.00
2008,07,11,09,26,18.10
2008,07,11,09,27,18.10
2008,07,11,09,28,18.10
2008,07,11,09,29,18.10
2008,07,11,09,30,18.10
2008,07,11,09,31,18.10
2008,07,11,09,32,18.10
2008,07,11,09,33,18.10
2008,07,11,09,34,18.10
2008,07,11,09,35,18.20
2008,07,11,09,36,18.20
2008,07,11,09,37,18.30
2008,07,11,09,38,18.30
2008,07,11,09,39,18.20
2008,07,11,09,40,18.20
2008,07,11,09,41,18.20
2008,07,11,09,42,18.20
2008,07,11,09,43,18.30
2008,07,11,09,44,18.30
2008,07,11,09,45,18.40
2008,07,11,09,46,18.40
2008,07,11,09,47,18.40
2008,07,11,09,48,18.40
2008,07,11,09,49,18.50
2008,07,11,09,50,18.60
2008,07,11,09,51,18.70
2008,07,11,09,52,18.80
2008,07,11,09,53,18.80
2008,07,11,09,54,18.80
2008,07,11,09,55,18.90
2008,07,11,09,56,18.90
2008,07,11,09,57,19.00
2008,07,11,09,58,19.10
2008,07,11,09,59,19.20
2008,07,11,10,00,19.20
2008,07,11,10,01,19.20
2008,07,11,10,02,19.20
2008,07,11,10,03,19.20
2008,07,11,10,04,19.20
2008,07,11,10,05,19.30
2008,07,11,10,06,19.30
2008,07,11,10,07,19.30
2008,07,11,10,08,19.30
2008,07,11,10,09,19.30
2008,07,11,10,10,19.30
2008,07,11,10,11,19.30
2008,07,11,10,12,19.30
2008,07,11,10,13,19.20
2008,07,11,10,14,19.20
2008,07,11,10,15,19.20
2008,07,11,10,16,19.20
2008,07,11,10,17,19.30
2008,07,11,10,18,19.30
2008,07,11,10,19,19.40
2008,07,11,10,20,19.40
2008,07,11,10,21,19.50
2008,07,11,10,22,19.60
2008,07,11,10,23,19.60
2008,07,11,10,24,19.70
2008,07,11,10,25,19.80
2008,07,11,10,26,19.90
2008,07,11,10,27,20.00
2008,07,11,10,28,20.10
2008,07,11,10,29,20.10
2008,07,11,10,30,20.10
2008,07,11,10,31,20.10
2008,07,11,10,32,20.10
2008,07,11,10,33,20.10
2008,07,11,10,34,20.20
2008,07,11,10,35,20.20
2008,07,11,10,36,20.30
2008,07,11,10,37,20.20
2008,07,11,10,38,20.20
2008,07,11,10,39,20.20
2008,07,11,10,40,20.10
2008,07,11,10,41,20.10
2008,07,11,10,42,20.10
2008,07,11,10,43,20.10
2008,07,11,10,44,20.10
2008,07,11,10,45,20.10
2008,07,11,10,46,20.20
2008,07,11,10,47,20.20
2008,07,11,10,48,20.30
2008,07,11,10,49,20.30
2008,07,11,10,50,20.30
2008,07,11,10,51,20.40
2008,07,11,10,52,20.40
2008,07,11,10,53,20.40
2008,07,11,10,54,20.40
2008,07,11,10,55,20.40
2008,07,11,10,56,20.50
2008,07,11,10,57,20.60
2008,07,11,10,58,20.60
2008,07,11,10,59,20.60
2008,07,11,11,00,20.50
2008,07,11,11,01,20.30
2008,07,11,11,02,20.20
2008,07,11,11,03,20.20
2008,07,11,11,04,20.30
2008,07,11,11,05,20.30
2008,07,11,11,06,20.20
2008,07,11,11,07,20.20
2008,07,11,11,08,20.20
2008,07,11,11,09,20.20
2008,07,11,11,10,20.20
2008,07,11,11,11,20.30
2008,07,11,11,12,20.40
2008,07,11,11,13,20.50
2008,07,11,11,14,20.70
2008,07,11,11,15,20.70
2008,07,11,11,16,20.70
2008,07,11,11,17,20.70
2008,07,11,11,18,20.60
2008,07,11,11,19,20.70
2008,07,11,11,20,20.80
2008,07,11,11,21,20.80
2008,07,11,11,22,20.70
2008,07,11,11,23,20.50
2008,07,11,11,24,20.40
2008,07,11,11,25,20.40
2008,07,11,11,26,20.40
2008,07,11,11,27,20.50
2008,07,11,11,28,20.70
2008,07,11,11,29,20.80
2008,07,11,11,30,20.90
2008,07,11,11,31,21.00
2008,07,11,11,32,21.10
2008,07,11,11,33,21.20
2008,07,11,11,34,21.20
2008,07,11,11,35,21.30
2008,07,11,11,36,21.30
2008,07,11,11,37,21.30
2008,07,11,11,38,21.40
2008,07,11,11,39,21.50
2008,07,11,11,40,21.40
2008,07,11,11,41,21.30
2008,07,11,11,42,21.30
2008,07,11,11,43,21.30
2008,07,11,11,44,21.30
2008,07,11,11,45,21.40
2008,07,11,11,46,21.50
2008,07,11,11,47,21.50
2008,07,11,11,48,21.50
2008,07,11,11,49,21.50
2008,07,11,11,50,21.60
2008,07,11,11,51,21.60
2008,07,11,11,52,21.70
2008,07,11,11,53,21.70
2008,07,11,11,54,21.80
2008,07,11,11,55,21.80
2008,07,11,11,56,21.80
2008,07,11,11,57,21.70
2008,07,11,11,58,21.60
2008,07,11,11,59,21.60
2008,07,11,12,00,21.60
2008,07,11,12,01,21.70
2008,07,11,12,02,21.80
2008,07,11,12,03,22.00
2008,07,11,12,04,22.10
2008,07,11,12,05,22.10
2008,07,11,12,06,22.10
2008,07,11,12,07,22.10
2008,07,11,12,08,22.10
2008,07,11,12,09,22.10
2008,07,11,12,10,22.10
2008,07,11,12,11,22.10
2008,07,11,12,12,22.10
2008,07,11,12,13,22.20
2008,07,11,12,14,22.20
2008,07,11,12,15,22.30
2008,07,11,12,16,22.30
2008,07,11,12,17,22.40
2008,07,11,12,18,22.50
2008,07,11,12,19,22.50
2008,07,11,12,20,22.60
2008,07,11,12,21,22.60
2008,07,11,12,22,22.50
2008,07,11,12,23,22.40
2008,07,11,12,24,22.50
2008,07,11,12,25,22.50
2008,07,11,12,26,22.50
2008,07,11,12,27,22.50
2008,07,11,12,28,22.30
2008,07,11,12,29,22.10
2008,07,11,12,30,22.00
2008,07,11,12,31,21.90
2008,07,11,12,32,21.80
2008,07,11,12,33,21.70
2008,07,11,12,34,21.70
2008,07,11,12,35,21.60
2008,07,11,12,36,21.50
2008,07,11,12,37,21.60
2008,07,11,12,38,21.50
2008,07,11,12,39,21.50
2008,07,11,12,40,21.50
2008,07,11,12,41,21.50
2008,07,11,12,42,21.60
2008,07,11,12,43,21.60
2008,07,11,12,44,21.50
2008,07,11,12,45,21.50
2008,07,11,12,46,21.50
2008,07,11,12,47,21.50
2008,07,11,12,48,21.40
2008,07,11,12,49,21.40
2008,07,11,12,50,21.40
2008,07,11,12,51,21.50
2008,07,11,12,52,21.50
2008,07,11,12,53,21.60
2008,07,11,12,54,21.60
2008,07,11,12,55,21.70
2008,07,11,12,56,21.80
2008,07,11,12,57,21.70
2008,07,11,12,58,21.70
2008,07,11,12,59,21.80
2008,07,11,13,00,21.90
2008,07,11,13,01,22.00
2008,07,11,13,02,22.00
2008,07,11,13,03,22.00
2008,07,11,13,04,21.90
2008,07,11,13,05,21.80
2008,07,11,13,06,21.80
2008,07,11,13,07,21.70
2008,07,11,13,08,21.80
2008,07,11,13,09,21.80
2008,07,11,13,10,21.90
2008,07,11,13,11,22.00
2008,07,11,13,12,22.10
2008,07,11,13,13,22.10
2008,07,11,13,14,22.10
2008,07,11,13,15,21.80
2008,07,11,13,16,21.70
2008,07,11,13,17,21.60
2008,07,11,13,18,21.40
2008,07,11,13,19,21.20
2008,07,11,13,20,21.20
2008,07,11,13,21,21.20
2008,07,11,13,22,21.10
2008,07,11,13,23,21.00
2008,07,11,13,24,21.00
2008,07,11,13,25,20.80
2008,07,11,13,26,20.70
2008,07,11,13,27,20.70
2008,07,11,13,28,20.70
2008,07,11,13,29,20.70
2008,07,11,13,30,20.70
2008,07,11,13,31,20.70
2008,07,11,13,32,20.60
2008,07,11,13,33,20.60
2008,07,11,13,34,20.50
2008,07,11,13,35,20.40
2008,07,11,13,36,20.30
2008,07,11,13,37,20.20
2008,07,11,13,38,20.20
2008,07,11,13,39,20.10
2008,07,11,13,40,20.20
2008,07,11,13,41,20.30
2008,07,11,13,42,20.30
2008,07,11,13,43,20.30
2008,07,11,13,44,20.30
2008,07,11,13,45,20.40
2008,07,11,13,46,20.50
2008,07,11,13,47,20.50
2008,07,11,13,48,20.50
2008,07,11,13,49,20.50
2008,07,11,13,50,20.50
2008,07,11,13,51,20.60
2008,07,11,13,52,20.60
2008,07,11,13,53,20.60
2008,07,11,13,54,20.50
2008,07,11,13,55,20.50
2008,07,11,13,56,20.60
2008,07,11,13,57,20.50
2008,07,11,13,58,20.50
2008,07,11,13,59,20.50
2008,07,11,14,00,20.50
2008,07,11,14,01,20.50
2008,07,11,14,02,20.50
2008,07,11,14,03,20.50
2008,07,11,14,04,20.60
2008,07,11,14,05,20.60
2008,07,11,14,06,20.60
2008,07,11,14,07,20.70
2008,07,11,14,08,20.70
2008,07,11,14,09,20.70
2008,07,11,14,10,20.80
2008,07,11,14,11,20.80
2008,07,11,14,12,20.90
2008,07,11,14,13,21.00
2008,07,11,14,14,21.10
2008,07,11,14,15,21.20
2008,07,11,14,16,21.30
2008,07,11,14,17,21.30
2008,07,11,14,18,21.30
2008,07,11,14,19,21.20
2008,07,11,14,20,21.10
2008,07,11,14,21,21.00
2008,07,11,14,22,20.90
2008,07,11,14,23,21.00
2008,07,11,14,24,21.10
2008,07,11,14,25,21.20
2008,07,11,14,26,21.50
2008,07,11,14,27,21.60
2008,07,11,14,28,21.80
2008,07,11,14,29,21.80
2008,07,11,14,30,21.90
2008,07,11,14,31,21.90
2008,07,11,14,32,22.00
2008,07,11,14,33,22.10
2008,07,11,14,34,22.10
2008,07,11,14,35,22.00
2008,07,11,14,36,21.90
2008,07,11,14,37,21.90
2008,07,11,14,38,21.90
2008,07,11,14,39,21.90
2008,07,11,14,40,21.80
2008,07,11,14,41,21.80
2008,07,11,14,42,21.70
2008,07,11,14,43,21.80
2008,07,11,14,44,21.80
2008,07,11,14,45,22.00
2008,07,11,14,46,22.10
2008,07,11,14,47,22.10
2008,07,11,14,48,22.10
2008,07,11,14,49,21.90
2008,07,11,14,50,21.80
2008,07,11,14,51,21.80
2008,07,11,14,52,21.80
2008,07,11,14,53,21.80
2008,07,11,14,54,21.60
2008,07,11,14,55,21.70
2008,07,11,14,56,21.80
2008,07,11,14,57,21.80
2008,07,11,14,58,21.90
2008,07,11,14,59,21.90
2008,07,11,15,00,21.90
2008,07,11,15,01,21.90
2008,07,11,15,02,21.90
2008,07,11,15,03,22.00
2008,07,11,15,04,22.00
2008,07,11,15,05,22.00
2008,07,11,15,06,22.10
2008,07,11,15,07,22.10
2008,07,11,15,08,22.10
2008,07,11,15,09,22.10
2008,07,11,15,10,22.20
2008,07,11,15,11,22.30
2008,07,11,15,12,22.30
2008,07,11,15,13,22.30
2008,07,11,15,14,22.40
2008,07,11,15,15,22.50
2008,07,11,15,16,22.60
2008,07,11,15,17,22.60
2008,07,11,15,18,22.60
2008,07,11,15,19,22.50
2008,07,11,15,20,22.40
2008,07,11,15,21,22.50
2008,07,11,15,22,22.50
2008,07,11,15,23,22.40
2008,07,11,15,24,22.40
2008,07,11,15,25,22.50
2008,07,11,15,26,22.70
2008,07,11,15,27,22.80
2008,07,11,15,28,22.90
2008,07,11,15,29,22.90
2008,07,11,15,30,22.90
2008,07,11,15,31,22.90
2008,07,11,15,32,22.80
2008,07,11,15,33,22.80
2008,07,11,15,34,22.70
2008,07,11,15,35,22.60
2008,07,11,15,36,22.60
2008,07,11,15,37,22.60
2008,07,11,15,38,22.60
2008,07,11,15,39,22.70
2008,07,11,15,40,22.90
2008,07,11,15,41,23.00
2008,07,11,15,42,23.20
2008,07,11,15,43,23.30
2008,07,11,15,44,23.50
2008,07,11,15,45,23.50
2008,07,11,15,46,23.60
2008,07,11,15,47,23.50
2008,07,11,15,48,23.40
2008,07,11,15,49,23.30
2008,07,11,15,50,23.20
2008,07,11,15,51,23.10
2008,07,11,15,52,23.10
2008,07,11,15,53,22.90
2008,07,11,15,54,22.70
2008,07,11,15,55,22.60
2008,07,11,15,56,22.40
2008,07,11,15,57,22.40
2008,07,11,15,58,22.40
2008,07,11,15,59,22.50
2008,07,11,16,00,22.50
2008,07,11,16,01,22.50
2008,07,11,16,02,22.60
2008,07,11,16,03,22.60
2008,07,11,16,04,22.70
2008,07,11,16,05,22.70
2008,07,11,16,06,22.70
2008,07,11,16,07,22.70
2008,07,11,16,08,22.60
2008,07,11,16,09,22.60
2008,07,11,16,10,22.40
2008,07,11,16,11,22.30
2008,07,11,16,12,22.20
2008,07,11,16,13,22.20
2008,07,11,16,14,22.20
2008,07,11,16,15,22.10
2008,07,11,16,16,22.10
2008,07,11,16,17,22.00
2008,07,11,16,18,22.00
2008,07,11,16,19,21.90
2008,07,11,16,20,21.90
2008,07,11,16,21,21.90
2008,07,11,16,22,21.90
2008,07,11,16,23,21.90
2008,07,11,16,24,21.90
2008,07,11,16,25,21.90
2008,07,11,16,26,21.80
2008,07,11,16,27,21.80
2008,07,11,16,28,21.70
2008,07,11,16,29,21.80
2008,07,11,16,30,21.90
2008,07,11,16,31,21.90
2008,07,11,16,32,21.90
2008,07,11,16,33,22.00
2008,07,11,16,34,22.10
2008,07,11,16,35,22.10
2008,07,11,16,36,22.10
2008,07,11,16,37,22.00
2008,07,11,16,38,22.00
2008,07,11,16,39,22.10
2008,07,11,16,40,22.10
2008,07,11,16,41,22.20
2008,07,11,16,42,22.20
2008,07,11,16,43,22.30
2008,07,11,16,44,22.40
2008,07,11,16,45,22.40
2008,07,11,16,46,22.40
2008,07,11,16,47,22.30
2008,07,11,16,48,22.30
2008,07,11,16,49,22.30
2008,07,11,16,50,22.30
2008,07,11,16,51,22.20
2008,07,11,16,52,22.20
2008,07,11,16,53,22.20
2008,07,11,16,54,22.30
2008,07,11,16,55,22.40
2008,07,11,16,56,22.40
2008,07,11,16,57,22.40
2008,07,11,16,58,22.50
2008,07,11,16,59,22.70
2008,07,11,17,00,22.70
2008,07,11,17,01,22.80
2008,07,11,17,02,22.80
2008,07,11,17,03,22.80
2008,07,11,17,04,22.80
2008,07,11,17,05,22.80
2008,07,11,17,06,22.90
2008,07,11,17,07,22.90
2008,07,11,17,08,22.90
2008,07,11,17,09,22.80
2008,07,11,17,10,22.80
2008,07,11,17,11,22.80
2008,07,11,17,12,22.80
2008,07,11,17,13,22.70
2008,07,11,17,14,22.70
2008,07,11,17,15,22.70
2008,07,11,17,16,22.60
2008,07,11,17,17,22.60
2008,07,11,17,18,22.60
2008,07,11,17,19,22.60
2008,07,11,17,20,22.60
2008,07,11,17,21,22.60